星链-4767 (STARLINK-4767 )

导读

STARLINK-4767是美国太空探索技术公司(SpaceX)星链互联网卫星星座中的一员,于2022年9月19日发射入轨。星链项目旨在通过近地轨道卫星群提供全球高速互联网接入服务,该卫星承担着拓展星座覆盖范围、提升全球网络服务能力的任务,服务于偏远地区网络覆盖、海事航空互联等多个应用场景。

Basic Information
目录编号:
53850
目录名称:
STARLINK-4767
国际标识:
2022-114AJ
轨道中心:
EARTH
卫星名称:
星链-4767
卫星全名:
星链-4767 (STARLINK-4767 )
卫星状态:
在轨 (已飞行1367 天)
发射日期:
2022-09-19 UTC
国别 :
美国 (US)
星等 :
--
Orbit Information
数据来源 国际轨道数据 AOE轨道数据
星历时间 2026-06-17T03:53:15+0800
13小时前
查看轨道信息
2026-06-15T03:00:00+0800
2天前
查看轨道信息
半长轴 6917.903km 6917.87km
偏心率 0.0001295 0.0002397
轨道倾角 53.159° 53.158°
近地点辐角 77.387° 133.594°
升交点赤经 208.592° 217.746°
平近点角 282.727° 316.019°
近地点 538.87km 538.074km
远地点 540.662km 541.392km
周期 95.438分钟 95.437分钟
每日圈数 15.088327 15.088434
Detailed Information
固有亮度:
5
最大亮度:
2.5
卫星平台:
Starlink v1.5
覆盖范围:
全球
运营商:
太空探索技术公司
运营商所在国:
美国
制造商(研发单位):
太空探索技术公司
制造商所在国:
美国
使用方式:
暂无
Satellite Introduction
星链(Starlink)计划是由太空探索技术公司(SpaceX)提出的一个巨型低轨卫星互联网星座项目,计划在2019年至2024年间在太空搭建由约1.2万颗卫星组成的“星链”网络,其中1584颗将部署在地球上空550千米处的近地轨道,并从2020年开始工作。该卫星仍在工作。
2D Orbit Map
3D Orbit Map
Orbit Altitude Analysis Chart
Orbit Inclination Analysis Chart
Orbit Comprehensive Analysis Chart
View Comprehensive Chart